Gwinner, ND

4:02 PM CST on February 23, 2017 (GMT -0600)
Gwinner-melroe

Weather History for KGWR - February, 2014

Change the Weather History Date:

Wednesday, February 5, 2014

  Actual Average (KP67) Record (KP67)
Temperature  
Mean Temperature 0 °F -  
Max Temperature 5 °F 19 °F 28 °F (1998)
Min Temperature -4 °F 4 °F 6 °F (1998)
Degree Days  
Heating Degree Days 64    
Moisture  
Dew Point -7 °F    
Average Humidity 66    
Maximum Humidity 78    
Minimum Humidity 56    
Precipitation  
Precipitation 0.00 in - - ()
Sea Level Pressure  
Sea Level Pressure 30.58 in    
Wind  
Wind Speed 11 mph (NW)    
Max Wind Speed 16 mph    
Max Gust Speed -    
Visibility 8 miles    
Events      
Averages and records for this station are not official NWS values.
T = Trace of Precipitation, MM = Missing Value Source: NWS Daily Summary

Daily Weather History Graph

Daily Weather History Graph

Search for Another Location

Airport or City:

Trip Planner

Search our weather history database for the weather conditions in past years. The results will help you decide how hot, cold, wet, or windy it might be!

Date:

Astronomy

Feb. 05, 2014 Rise Set
Actual Time 7:48 AM CST 5:41 PM CST
Civil Twilight 7:16 AM CST 6:13 PM CST
Nautical Twilight 6:40 AM CST 6:48 PM CST
Astronomical Twilight 6:05 AM CST 7:23 PM CST
Moon 10:39 AM CST (2/5) No Moon Set
Length of Visible Light 10h 56m
Length of Day
9h 53m
Waxing Crescent, 39% of the Moon is Illuminated
Feb 5
Waxing Crescent
Feb 6
First Quarter
Feb 14
Full
Feb 22
Last Quarter
Mar 1
New

Hourly Weather History & Observations

Time (CST) Temp. Windchill Dew Point Humidity Pressure Visibility Wind Dir Wind Speed Gust Speed Precip Events Conditions
12:15 AM 1.4 °F -15.3 °F -7.6 °F 66% 30.58 in 10.0 mi NNW 11.5 mph - 0.00 in   Clear
12:35 AM 1.4 °F -13.5 °F -7.6 °F 66% 30.59 in 10.0 mi NNW 9.2 mph - 0.00 in   Clear
12:55 AM 1.4 °F -12.5 °F -7.6 °F 66% 30.60 in 10.0 mi NW 8.1 mph - 0.00 in   Clear
1:15 AM 1.4 °F -13.5 °F -7.6 °F 66% 30.60 in 10.0 mi NW 9.2 mph - 0.00 in   Clear
1:35 AM 1.4 °F -13.5 °F -7.6 °F 66% 30.60 in 10.0 mi NW 9.2 mph - 0.00 in   Clear
1:55 AM 1.4 °F -14.5 °F -7.6 °F 66% 30.60 in 10.0 mi NW 10.4 mph - 0.00 in   Clear
2:15 AM 1.4 °F -14.5 °F -7.6 °F 66% 30.60 in 10.0 mi NW 10.4 mph - 0.00 in   Clear
2:35 AM 1.4 °F -15.3 °F -7.6 °F 66% 30.59 in 10.0 mi NW 11.5 mph - 0.00 in   Clear
2:55 AM 1.4 °F -15.3 °F -7.6 °F 66% 30.59 in 10.0 mi NW 11.5 mph - 0.00 in   Mostly Cloudy
3:15 AM 1.4 °F -16.1 °F -7.6 °F 66% 30.59 in 10.0 mi NW 12.7 mph - 0.00 in   Scattered Clouds
3:35 AM 1.4 °F -16.9 °F -7.6 °F 66% 30.58 in 10.0 mi NNW 13.8 mph - 0.00 in   Mostly Cloudy
3:55 AM 1.4 °F -16.1 °F -7.6 °F 66% 30.59 in 10.0 mi NNW 12.7 mph - 0.00 in   Mostly Cloudy
4:15 AM 1.4 °F -16.9 °F -7.6 °F 66% 30.59 in 10.0 mi NNW 13.8 mph - 0.00 in   Overcast
4:35 AM 1.4 °F -16.9 °F -7.6 °F 66% 30.59 in 10.0 mi NNW 13.8 mph - 0.00 in   Mostly Cloudy
4:55 AM 1.4 °F -16.1 °F -7.6 °F 66% 30.60 in 10.0 mi NNW 12.7 mph - 0.00 in   Mostly Cloudy
5:15 AM 1.4 °F -16.1 °F -7.6 °F 66% 30.60 in 10.0 mi NNW 12.7 mph - 0.00 in   Overcast
5:35 AM 1.4 °F -16.9 °F -7.6 °F 66% 30.60 in 10.0 mi North 13.8 mph - 0.00 in   Overcast
5:55 AM 1.4 °F -14.5 °F -7.6 °F 66% 30.59 in 10.0 mi North 10.4 mph - 0.00 in   Overcast
6:15 AM 1.4 °F -15.3 °F -7.6 °F 66% 30.59 in 10.0 mi NNW 11.5 mph - 0.00 in   Overcast
6:35 AM 1.4 °F -15.3 °F -7.6 °F 66% 30.60 in 10.0 mi NNW 11.5 mph - 0.00 in   Overcast
6:55 AM 1.4 °F -15.3 °F -7.6 °F 66% 30.60 in 10.0 mi North 11.5 mph - 0.00 in   Overcast
7:15 AM 1.4 °F -14.5 °F -7.6 °F 66% 30.59 in 10.0 mi NNW 10.4 mph - 0.00 in   Overcast
7:35 AM 1.4 °F -16.1 °F -7.6 °F 66% 30.59 in 10.0 mi NNW 12.7 mph - 0.00 in   Overcast
7:55 AM 1.4 °F -13.5 °F -7.6 °F 66% 30.60 in 10.0 mi NNW 9.2 mph - 0.00 in   Overcast
8:15 AM 1.4 °F -15.3 °F -7.6 °F 66% 30.60 in 4.0 mi NNW 11.5 mph - 0.00 in   Overcast
8:35 AM 1.4 °F -15.3 °F -5.8 °F 72% 30.60 in 2.5 mi NNW 11.5 mph - 0.00 in   Overcast
8:55 AM 1.4 °F -14.5 °F -5.8 °F 72% 30.60 in 7.0 mi NNW 10.4 mph - 0.00 in   Overcast
9:15 AM 1.4 °F -15.3 °F -5.8 °F 72% 30.60 in 3.0 mi NNW 11.5 mph - 0.00 in   Overcast
9:35 AM 1.4 °F -16.1 °F -5.8 °F 72% 30.61 in 3.0 mi NNW 12.7 mph - 0.00 in   Overcast
9:55 AM 3.2 °F -13.9 °F -5.8 °F 66% 30.61 in 7.0 mi North 12.7 mph - 0.00 in   Overcast
10:15 AM 3.2 °F -13.1 °F -5.8 °F 66% 30.61 in 5.0 mi North 11.5 mph - 0.00 in   Overcast
10:35 AM 3.2 °F -13.9 °F -5.8 °F 66% 30.61 in 3.0 mi NNW 12.7 mph - 0.00 in   Overcast
10:55 AM 3.2 °F -15.9 °F -5.8 °F 66% 30.62 in 9.0 mi North 16.1 mph - 0.00 in   Overcast
11:15 AM 3.2 °F -14.6 °F -7.6 °F 61% 30.63 in 5.0 mi North 13.8 mph - 0.00 in   Mostly Cloudy
11:35 AM 3.2 °F -14.6 °F -5.8 °F 66% 30.63 in 2.5 mi North 13.8 mph - 0.00 in   Overcast
11:55 AM 3.2 °F -13.1 °F -5.8 °F 66% 30.63 in 3.0 mi North 11.5 mph - 0.00 in   Overcast
12:15 PM 3.2 °F -13.1 °F -5.8 °F 66% 30.62 in 5.0 mi North 11.5 mph - 0.00 in   Overcast
12:35 PM 3.2 °F -12.2 °F -5.8 °F 66% 30.62 in 9.0 mi North 10.4 mph - 0.00 in   Overcast
12:55 PM 3.2 °F -10.3 °F -5.8 °F 66% 30.61 in 3.0 mi North 8.1 mph - 0.00 in   Overcast
1:15 PM 3.2 °F -13.1 °F -5.8 °F 66% 30.61 in 3.0 mi NNW 11.5 mph - 0.00 in   Overcast
1:35 PM 5.0 °F -10.0 °F -5.8 °F 61% 30.60 in 7.0 mi NNW 10.4 mph - 0.00 in   Scattered Clouds
1:55 PM 5.0 °F -9.1 °F -5.8 °F 61% 30.59 in 10.0 mi NW 9.2 mph - 0.00 in   Scattered Clouds
2:15 PM 5.0 °F -10.0 °F -5.8 °F 61% 30.58 in 8.0 mi NNW 10.4 mph - 0.00 in   Mostly Cloudy
2:35 PM 5.0 °F -10.8 °F -7.6 °F 56% 30.57 in 10.0 mi NW 11.5 mph - 0.00 in   Scattered Clouds
2:55 PM 5.0 °F -10.8 °F -5.8 °F 61% 30.57 in 10.0 mi NNW 11.5 mph - 0.00 in   Partly Cloudy
3:15 PM 5.0 °F -10.0 °F -5.8 °F 61% 30.57 in 7.0 mi WNW 10.4 mph - 0.00 in   Scattered Clouds
3:35 PM 5.0 °F -10.8 °F -5.8 °F 61% 30.57 in 10.0 mi NW 11.5 mph - 0.00 in   Mostly Cloudy
3:55 PM 5.0 °F -10.8 °F -5.8 °F 61% 30.57 in 9.0 mi WNW 11.5 mph - 0.00 in   Mostly Cloudy
4:15 PM 5.0 °F -11.6 °F -5.8 °F 61% 30.56 in 10.0 mi WNW 12.7 mph - 0.00 in   Scattered Clouds
4:35 PM 3.2 °F -15.3 °F -4.0 °F 72% 30.56 in 3.0 mi WNW 15.0 mph - 0.00 in   Scattered Clouds
4:55 PM 3.2 °F -13.1 °F -4.0 °F 72% 30.56 in 1.2 mi NW 11.5 mph - 0.00 in   Overcast
5:15 PM 3.2 °F -12.2 °F -5.8 °F 66% 30.56 in 5.0 mi NW 10.4 mph - 0.00 in   Mostly Cloudy
5:35 PM 3.2 °F -13.9 °F -7.6 °F 61% 30.56 in 10.0 mi WNW 12.7 mph - 0.00 in   Partly Cloudy
5:55 PM 1.4 °F -15.3 °F -7.6 °F 66% 30.56 in 10.0 mi WNW 11.5 mph - 0.00 in   Clear
6:15 PM 1.4 °F -15.3 °F -7.6 °F 66% 30.56 in 10.0 mi WNW 11.5 mph - 0.00 in   Clear
6:35 PM 1.4 °F -15.3 °F -9.4 °F 61% 30.56 in 10.0 mi WNW 11.5 mph - 0.00 in   Scattered Clouds
6:55 PM 1.4 °F -13.5 °F -9.4 °F 61% 30.56 in 10.0 mi WNW 9.2 mph - 0.00 in   Scattered Clouds
7:15 PM -0.4 °F -16.7 °F -9.4 °F 66% 30.56 in 10.0 mi WNW 10.4 mph - 0.00 in   Partly Cloudy
7:35 PM -0.4 °F -17.6 °F -7.6 °F 72% 30.56 in 6.0 mi WNW 11.5 mph - 0.00 in   Mostly Cloudy
7:55 PM -0.4 °F -16.7 °F -7.6 °F 72% 30.55 in 10.0 mi WNW 10.4 mph - 0.00 in   Scattered Clouds
8:15 PM -0.4 °F -17.6 °F -7.6 °F 72% 30.55 in 10.0 mi WNW 11.5 mph - 0.00 in   Clear
8:35 PM -0.4 °F -15.7 °F -9.4 °F 66% 30.54 in 10.0 mi WNW 9.2 mph - 0.00 in   Clear
8:55 PM -0.4 °F -17.6 °F -9.4 °F 66% 30.54 in 10.0 mi West 11.5 mph - 0.00 in   Clear
9:15 PM -2.2 °F -16.8 °F -9.4 °F 71% 30.54 in 10.0 mi West 8.1 mph - 0.00 in   Clear
9:35 PM -4.0 °F -21.2 °F -9.4 °F 78% 30.54 in 10.0 mi West 10.4 mph - 0.00 in   Partly Cloudy
9:55 PM -4.0 °F -22.1 °F -9.4 °F 78% 30.53 in 10.0 mi West 11.5 mph - 0.00 in   Clear
10:15 PM -4.0 °F -22.1 °F - N/A% 30.53 in 10.0 mi West 11.5 mph - 0.00 in   Clear
10:35 PM -4.0 °F -21.2 °F -11.2 °F 71% 30.52 in 10.0 mi West 10.4 mph - 0.00 in   Clear
10:55 PM -4.0 °F -22.1 °F -13.0 °F 65% 30.51 in 10.0 mi West 11.5 mph - 0.00 in   Clear
11:15 PM -4.0 °F -23.0 °F -11.2 °F 71% 30.51 in 10.0 mi WNW 12.7 mph - 0.00 in   Clear
11:35 PM -4.0 °F -23.0 °F -11.2 °F 71% 30.50 in 10.0 mi WNW 12.7 mph - 0.00 in   Clear
11:55 PM -4.0 °F -21.2 °F -13.0 °F 65% 30.50 in 10.0 mi WNW 10.4 mph - 0.00 in   Clear